Location: Madrid
(40.4000°N, 3.6830°W)
Time: 17:28:23
(UTC+01:00)

Envisat - Visible Passes

Search period start: 25 February 2020 00:00
Search period end: 06 March 2020 00:00
Orbit: 764 x 766 km, 98.1° (Epoch: 24 February)

Date Brightness Start Highest point End Pass type
(mag) Time Alt. Az. Time Alt. Az. Time Alt. Az.
25 Feb 6.6 06:27:05 10° ENE 06:28:44 11° E 06:30:24 10° ESE visible
26 Feb 4.3 07:26:36 10° NNE 07:31:30 47° E 07:36:22 10° S visible
26 Feb 6.2 20:21:53 10° SW 20:24:53 16° W 20:27:54 10° NW visible
27 Feb 5.9 06:50:41 10° NE 06:54:30 21° E 06:58:17 10° SE visible
27 Feb 4.9 19:43:12 10° SSW 19:47:48 35° W 19:52:27 10° NNW visible
29 Feb 4.9 07:15:28 10° NNE 07:20:09 37° E 07:24:49 10° SSE visible
29 Feb 5.9 20:09:48 10° SW 20:13:28 20° W 20:17:10 10° NW visible
01 Mar 6.2 06:39:54 10° NE 06:43:06 17° E 06:46:15 10° SE visible
01 Mar 4.4 19:31:37 10° S 19:36:28 44° W 19:41:20 10° NNW visible
02 Mar 6.6 20:38:01 10° WSW 20:39:14 11° W 20:40:29 10° WNW visible
03 Mar 5.4 07:04:23 10° NE 07:08:47 29° E 07:13:10 10° SSE visible
03 Mar 5.6 19:57:56 10° SSW 20:02:05 25° W 20:06:16 10° NW visible
04 Mar 6.5 06:29:27 10° ENE 06:31:40 13° E 06:33:53 10° ESE visible
05 Mar 6.3 20:25:08 10° WSW 20:27:48 14° W 20:30:29 10° WNW visible
